User: anonymous   Login
Location: Boston
(42.3580°N, 71.0600°W)
Time: 22:08:48
(UTC-04:00)
Language:

YUBILEINY - Orbit

View from above orbital plane
View from above orbital plane
View from above satellite
View from above satellite

Ground track
Ground track

The orbit data is extracted from the following two-line orbital elements,

1 32953U 08025A   18291.82407161  .00000020  00000-0  75656-4 0  9992
2 32953  82.4993 295.7883 0018245 302.2216  57.7094 12.43086158472134
Epoch (UTC): 18 October 2018 19:46:39
Eccentricity: 0.0018245
inclination: 82.4993°
perigee height: 1479 km
apogee height: 1508 km
right ascension of ascending node: 295.7883°
argument of perigee: 302.2216°
revolutions per day: 12.43086158
mean anomaly at epoch: 57.7094°
orbit number at epoch: 47213

The dashed part of the orbit path shows where the satellite is in the earth's shadow,  

DLR